INMARSAT 2-F1

导读 | 星芒AI

INMARSAT 2-F1 是国际海事卫星组织(INMARSAT)于1991年发射的一颗通信卫星,主要用于提供海事和航空领域的移动卫星通信服务。该卫星位于东经64.5度的地球同步轨道,搭载L频段和C频段转发器,支持语音、数据和遇险报警等功能。作为第二代INMARSAT卫星的一部分,2-F1在提升全球海上安全与通信能力方面发挥了重要作用,并在轨运行多年后逐步退役。

基本信息
目录编号:
20918
目录名称:
INMARSAT 2-F1
国际标识:
1990-093A
轨道中心:
EARTH
卫星名称:
INMARSAT 2-F1
卫星全名:
--
卫星状态:
在轨 (已飞行12783 天)
发射日期:
1990-10-30 UTC
国别 :
(IM)
星等 :
--
轨道信息
数据来源 国际轨道数据
星历时间: 2025-10-28T19:46:39+0800
19小时前
查看轨道信息
半长轴: 42559.584km
偏心率: 0.0004874
轨道倾角: 12.922°
近地点辐角 334.654°
升交点赤经 7.784°
平近点角 30.924°
近地点: 36160.705km
远地点: 36202.193km
周期: 1456.317分钟
每日圈数: 0.988796
详细信息
使用方式:
暂无
2D轨道图
3D轨道图
轨道高度分析图
轨道倾角分析图
轨道综合分析图
查看轨道综合分析图